Weather reports worldwide

Advertisment
Porto Colom, Spain (8309): temperature & dewpoint: 14.10.2019 22:00:00 - 20.10.2019 22:00:00 (CEST)Porto Colom, Spain (8309): wind speed & gusts: 14.10.2019 22:00:00 - 20.10.2019 22:00:00 (CEST)Porto Colom, Spain (8309): wind direction: 14.10.2019 22:00:00 - 20.10.2019 22:00:00 (CEST)Porto Colom, Spain (8309): reduced air pressure: 14.10.2019 22:00:00 - 20.10.2019 22:00:00 (CEST)Porto Colom, Spain (8309): visibility: 14.10.2019 22:00:00 - 20.10.2019 22:00:00 (CEST)Porto Colom, Spain (8309): sunshine duration: 14.10.2019 22:00:00 - 20.10.2019 22:00:00 (CEST)Porto Colom, Spain (8309): precipitation: 14.10.2019 22:00:00 - 20.10.2019 22:00:00 (CEST)
Date & Time tt [°C] td [°C] ff [km/h] ff [kn] fx [km/h] fx [kn] dd ppp [hPa] vv [km] sd [min] rr [mm]
20.10.2019 22:00:00 - - - - - - - - - - -
20.10.2019 21:00:00 - - - - - - - - - - -
20.10.2019 20:00:00 - - - - - - - - - - -
20.10.2019 19:00:00 - - - - - - - - - - -
20.10.2019 18:00:00 23,3 18,4 15 8 35 19 W 1010,9 20 2 0,0
20.10.2019 17:00:00 23,8 17,8 21 12 41 22 W 1010,6 20 31 0,0
20.10.2019 16:00:00 24,5 18,2 21 11 38 20 SW 1010,3 20 9 0,0
20.10.2019 15:00:00 23,9 18,3 18 10 42 23 WSW 1009,9 20 3 0,0
20.10.2019 14:00:00 23,3 20,1 25 13 51 27 SW 1009,7 13 0 -
20.10.2019 13:00:00 23,4 20,3 40 22 52 28 SW 1010,2 10 0 0,0
20.10.2019 12:00:00 23,7 20,5 23 13 45 24 SW 1009,5 8 3 0,0
20.10.2019 11:00:00 23,8 19,9 35 19 46 25 SW 1009,8 12 17 0,0
20.10.2019 10:00:00 23,4 19,1 27 14 44 24 SW 1009,5 20 13 0,0
20.10.2019 09:00:00 23,2 18,5 29 16 41 22 SW 1008,8 20 18 0,0
20.10.2019 08:00:00 22,6 18,5 32 17 41 22 SSW 1008,0 17 0 -
20.10.2019 07:00:00 22,3 19,1 27 15 36 20 SSW 1008,0 18 0 0,0
20.10.2019 06:00:00 22,0 19,2 19 10 35 19 SSW 1007,8 15 0 0,0
20.10.2019 05:00:00 22,0 19,2 28 15 36 20 SSW 1007,9 17 0 0,0
20.10.2019 04:00:00 22,1 19,3 28 15 36 20 SSW 1008,2 16 0 0,0
20.10.2019 03:00:00 22,0 19,2 25 14 35 19 SW 1008,6 14 0 0,0
20.10.2019 02:00:00 21,9 18,9 27 15 34 18 SSW 1008,7 20 0 -
20.10.2019 01:00:00 22,0 19,0 28 15 39 21 SSW 1009,2 20 0 0,0
20.10.2019 00:00:00 22,0 19,2 28 15 35 19 SSW 1009,4 20 0 0,0
19.10.2019 23:00:00 22,0 19,3 23 12 31 17 SSW 1009,8 20 0 0,0
19.10.2019 22:00:00 21,3 18,3 9 5 16 9 WSW 1009,6 20 0 0,0
19.10.2019 21:00:00 21,2 17,8 7 4 16 8 W 1009,8 20 0 0,0
19.10.2019 20:00:00 21,6 17,8 10 5 27 15 SW 1009,9 20 0 -
19.10.2019 19:00:00 22,4 18,4 22 12 36 19 SW 1009,7 20 29 0,0
19.10.2019 18:00:00 23,3 18,2 28 15 41 22 SW 1009,7 20 60 0,0
19.10.2019 17:00:00 23,9 17,6 32 17 41 22 SW 1009,7 20 58 0,0
19.10.2019 16:00:00 24,3 17,5 30 16 42 23 SW 1010,0 20 58 0,0
19.10.2019 15:00:00 24,5 17,5 31 17 42 23 SW 1010,3 20 60 0,0
19.10.2019 14:00:00 24,6 17,3 29 15 41 22 SW 1011,0 15 60 -
19.10.2019 13:00:00 24,3 17,3 30 16 41 22 SW 1011,6 15 60 0,0
19.10.2019 12:00:00 23,9 18,3 30 16 39 21 SW 1012,1 20 45 0,0
19.10.2019 11:00:00 23,4 18,7 29 15 39 21 SW 1012,3 20 58 0,0
19.10.2019 10:00:00 22,5 18,7 29 16 35 19 SSW 1012,2 20 57 0,0
19.10.2019 09:00:00 20,4 18,0 7 4 17 9 WSW 1012,4 20 19 0,0
19.10.2019 08:00:00 19,8 17,5 10 6 22 12 W 1012,2 20 0 -
19.10.2019 07:00:00 19,9 17,5 11 6 19 10 W 1012,1 20 0 0,0
19.10.2019 06:00:00 20,0 17,8 11 6 19 10 WSW 1012,1 20 0 0,0
19.10.2019 05:00:00 20,3 18,2 11 6 17 9 W 1012,5 20 0 0,0
19.10.2019 04:00:00 20,3 18,4 9 5 14 8 W 1012,9 20 0 0,0
19.10.2019 03:00:00 20,7 18,5 9 5 14 8 W 1013,4 20 0 0,0
19.10.2019 02:00:00 20,8 18,8 11 6 16 9 W 1013,7 20 0 -
19.10.2019 01:00:00 20,9 18,7 10 5 18 10 W 1014,0 20 0 0,0
19.10.2019 00:00:00 21,1 18,8 13 7 19 10 W 1014,3 20 0 0,0
18.10.2019 23:00:00 21,2 19,0 7 4 16 9 W 1014,7 20 0 0,0
18.10.2019 22:00:00 21,4 19,0 8 4 16 9 WSW 1014,8 20 0 0,0
18.10.2019 21:00:00 21,6 18,8 8 4 13 7 W 1014,6 20 0 0,0
18.10.2019 20:00:00 22,3 18,9 8 4 18 10 WSW 1014,7 20 0 -
18.10.2019 19:00:00 23,2 18,8 12 7 29 15 WSW 1014,5 20 0 0,0
18.10.2019 18:00:00 24,2 17,5 14 8 30 16 WSW 1014,6 20 38 0,0
18.10.2019 17:00:00 25,6 17,0 18 10 36 19 WSW 1014,7 20 60 0,0
18.10.2019 16:00:00 25,6 15,3 20 11 36 19 W 1014,8 20 55 0,0
18.10.2019 15:00:00 25,2 19,1 28 15 37 20 SSW 1014,7 20 60 0,0
18.10.2019 14:00:00 25,1 17,8 20 11 35 19 SW 1015,9 20 25 -
18.10.2019 13:00:00 24,1 19,6 24 13 30 16 SW 1016,5 20 25 0,0
18.10.2019 12:00:00 24,2 19,3 24 13 29 16 SW 1016,7 20 60 0,0
18.10.2019 11:00:00 23,6 18,7 20 11 26 14 SW 1016,8 20 60 0,0
18.10.2019 10:00:00 22,3 18,5 13 7 17 9 SW 1016,8 18 60 0,0
18.10.2019 09:00:00 18,8 16,8 6 4 11 6 NW 1016,5 20 31 0,0
18.10.2019 08:00:00 17,6 15,6 4 2 10 5 WNW 1015,8 20 0 -
18.10.2019 07:00:00 18,3 16,3 5 3 9 5 NW 1016,1 20 0 0,0
18.10.2019 06:00:00 18,7 16,5 4 2 17 9 NW 1015,9 20 0 0,0
18.10.2019 05:00:00 19,4 16,5 9 5 19 11 WNW 1016,1 20 0 0,0
18.10.2019 04:00:00 19,7 16,6 12 6 21 12 W 1016,1 20 0 0,0
18.10.2019 03:00:00 19,7 16,3 10 5 19 11 WSW 1016,7 20 0 0,0
18.10.2019 02:00:00 19,9 16,3 14 8 21 11 W 1017,2 20 0 -
18.10.2019 01:00:00 19,9 16,3 14 8 20 11 W 1017,4 20 0 0,0
18.10.2019 00:00:00 19,7 16,6 8 5 19 10 WSW 1017,5 20 0 0,0
17.10.2019 23:00:00 20,0 16,6 9 5 17 9 W 1017,6 20 0 0,0
17.10.2019 22:00:00 20,1 16,3 10 5 20 11 WSW 1017,3 20 0 0,0
17.10.2019 21:00:00 20,5 16,1 8 5 15 8 WSW 1017,0 20 0 0,0
17.10.2019 20:00:00 21,2 16,0 11 6 22 12 W 1016,7 20 0 -
17.10.2019 19:00:00 22,0 16,0 16 9 30 16 SW 1016,1 20 45 0,0
17.10.2019 18:00:00 23,1 16,9 22 12 34 19 SW 1016,2 20 58 0,0
17.10.2019 17:00:00 23,7 17,2 25 13 37 20 SW 1016,3 20 60 0,0
17.10.2019 16:00:00 23,7 17,0 28 15 40 22 SW 1016,5 20 56 0,0
17.10.2019 15:00:00 23,9 16,6 31 17 40 22 SSW 1016,8 20 60 0,0
17.10.2019 14:00:00 24,0 16,8 28 15 37 20 SW 1017,2 20 60 -
17.10.2019 13:00:00 23,9 16,9 24 13 34 19 SW 1017,8 20 60 0,0
17.10.2019 12:00:00 23,6 15,9 24 13 32 17 SSW 1018,0 20 60 0,0
17.10.2019 11:00:00 23,1 16,1 17 9 27 15 SW 1018,2 20 60 0,0
17.10.2019 10:00:00 21,1 15,6 11 6 18 10 SW 1017,8 20 51 0,0
17.10.2019 09:00:00 18,4 14,9 5 3 10 5 WNW 1017,7 20 15 0,0
17.10.2019 08:00:00 17,9 14,4 6 3 10 5 NW 1017,1 20 0 -
17.10.2019 07:00:00 17,8 14,7 5 3 11 6 NW 1016,8 20 0 0,0
17.10.2019 06:00:00 17,9 14,6 5 3 9 5 WNW 1016,8 20 0 0,0
17.10.2019 05:00:00 17,9 14,2 5 3 11 6 NW 1017,2 20 0 0,0
17.10.2019 04:00:00 18,1 14,4 6 3 15 8 NNW 1017,4 20 0 0,0
17.10.2019 03:00:00 18,8 13,7 9 5 17 9 W 1017,7 20 0 0,0
17.10.2019 02:00:00 19,2 13,0 10 6 18 10 W 1018,0 20 0 -
17.10.2019 01:00:00 18,4 12,8 7 4 18 10 WNW 1018,4 20 0 0,0
17.10.2019 00:00:00 18,8 13,5 9 5 20 11 WNW 1018,4 20 0 0,0
16.10.2019 23:00:00 19,4 13,6 11 6 18 10 W 1017,8 20 0 0,0
16.10.2019 22:00:00 19,5 13,9 12 6 18 10 W 1017,7 20 0 0,0
16.10.2019 21:00:00 19,8 13,8 9 5 16 9 W 1017,5 20 0 0,0
16.10.2019 20:00:00 20,6 13,8 9 5 21 11 WSW 1017,6 20 0 -
16.10.2019 19:00:00 21,7 13,9 13 7 34 18 WSW 1017,4 20 42 0,0
16.10.2019 18:00:00 22,4 14,2 23 13 36 19 SW 1017,4 20 55 0,0
16.10.2019 17:00:00 23,1 13,9 27 15 37 20 SW 1017,5 20 60 0,0
16.10.2019 16:00:00 23,5 11,9 26 14 35 19 SSW 1018,1 20 60 0,0
16.10.2019 15:00:00 23,3 12,8 28 15 39 21 SW 1018,5 20 60 0,0
16.10.2019 14:00:00 23,4 14,1 26 14 33 18 SSW 1019,1 20 60 -
16.10.2019 13:00:00 23,2 13,7 22 12 30 16 SSW 1019,8 20 60 0,0
16.10.2019 12:00:00 23,0 13,0 18 10 26 14 SW 1020,4 20 60 0,0
16.10.2019 11:00:00 22,0 10,5 8 4 15 8 W 1020,5 20 60 0,0
16.10.2019 10:00:00 20,2 10,6 6 3 10 5 W 1020,2 20 60 0,0
16.10.2019 09:00:00 16,6 9,3 6 4 11 6 NW 1020,0 20 31 0,0
16.10.2019 08:00:00 15,8 8,8 7 4 11 6 NW 1019,6 20 0 -
16.10.2019 07:00:00 15,1 9,0 7 4 14 7 N 1019,8 20 0 0,0
16.10.2019 06:00:00 15,1 9,7 6 3 13 7 NW 1019,8 20 0 0,0
16.10.2019 05:00:00 14,2 9,8 8 5 13 7 NNW 1019,9 20 0 0,0
16.10.2019 04:00:00 14,5 9,3 8 4 12 6 N 1019,8 20 0 0,0
16.10.2019 03:00:00 15,5 9,2 10 5 14 7 NNW 1020,0 20 0 0,0
16.10.2019 02:00:00 14,5 9,6 8 5 10 5 N 1020,3 20 0 -
16.10.2019 01:00:00 14,8 9,4 6 4 11 6 N 1020,2 20 0 0,0
16.10.2019 00:00:00 14,8 9,2 7 4 12 7 NNW 1020,1 20 0 0,0
15.10.2019 23:00:00 16,2 9,4 6 3 13 7 NNW 1020,1 20 0 0,0
15.10.2019 22:00:00 16,7 9,2 6 4 12 7 NNW 1019,7 20 0 0,0
15.10.2019 21:00:00 17,1 9,3 8 4 13 7 NNW 1019,2 20 0 0,0
15.10.2019 20:00:00 17,8 8,4 6 4 19 10 NW 1018,9 20 0 -
15.10.2019 19:00:00 19,8 8,5 16 9 27 14 NNW 1018,0 20 58 0,0
15.10.2019 18:00:00 22,1 8,5 12 6 29 15 W 1017,4 20 60 0,0
15.10.2019 17:00:00 23,0 7,1 14 8 32 17 WNW 1017,0 20 60 0,0
15.10.2019 16:00:00 23,4 9,0 14 8 32 18 WNW 1016,6 20 60 0,0
15.10.2019 15:00:00 23,8 10,2 10 5 32 17 WNW 1016,6 20 60 0,0
15.10.2019 14:00:00 23,5 8,8 9 5 26 14 NW 1016,6 20 60 -
15.10.2019 13:00:00 22,8 8,5 14 8 26 14 NW 1016,9 20 60 0,0
15.10.2019 12:00:00 21,8 10,3 16 9 30 16 NNW 1016,6 20 60 0,0
15.10.2019 11:00:00 21,5 11,2 8 5 25 13 NW 1016,0 20 60 0,0
15.10.2019 10:00:00 20,2 13,2 13 7 25 13 N 1015,4 20 60 0,0
15.10.2019 09:00:00 19,7 15,3 16 8 24 13 NNW 1014,2 20 30 0,0
15.10.2019 08:00:00 19,7 14,5 14 8 43 23 WNW 1013,0 13 0 -
15.10.2019 07:00:00 20,3 14,9 19 11 44 24 WNW 1012,2 15 0 0,0
15.10.2019 06:00:00 20,5 16,9 16 9 36 19 W 1011,5 15 0 0,0
15.10.2019 05:00:00 20,2 16,2 22 12 37 20 WNW 1011,0 20 0 0,2
15.10.2019 04:00:00 20,9 16,0 13 7 31 17 W 1010,8 20 0 0,0
15.10.2019 03:00:00 21,9 18,7 17 9 37 20 W 1011,7 17 0 0,0
15.10.2019 02:00:00 22,5 20,4 15 8 32 17 W 1011,4 15 0 -
15.10.2019 01:00:00 21,8 18,6 15 8 29 15 SSW 1011,7 16 0 0,0
15.10.2019 00:00:00 22,3 19,8 18 10 27 15 S 1012,8 12 0 0,0
14.10.2019 23:00:00 22,5 19,6 9 5 29 16 SSE 1012,7 19 0 0,0
14.10.2019 22:00:00 22,4 19,9 13 7 25 13 ESE 1012,7 14 0 1,2

tt = temperature
td = dewpoint
ff = wind speed
fx = gusts
dd = wind direction
ppp = reduced air pressure
vv = visibility
sd = sunshine duration
rr = precipitation

Next stations